sat.trackr.live / text

‹ back to catalog

DONGPO 02

NORAD 53452 · 2022-098J

PAYLOAD ACTIVE UNKNOWN

§ Identity

Operator
Country
PRC
Launch date
2022-08-10
Launch site
TAISC
Launch vehicle
Mass (kg)
RCS (m²)

External: N2YO · Heavens-Above · Gunter

§ Orbital elements

Epoch: 2026-09-13T13:57:44.459712Z

Period
88.24 min
Inclination
97.5516°
Eccentricity
0.0011341
Mean motion
16.31937210 rev/d
Perigee alt
179.9 km
Apogee alt
194.8 km
Semi-major
6,565.5 km
B*
7.8205e-4
RAAN
37.5890°
Arg perigee
277.2523°
Mean anomaly
82.7483°
Rev number
22,883

§ Raw data

DONGPO 021 53452U 22098J   26256.58176458  .04156202  25920-5  78205-3 0  99932 53452  97.5516  37.5890 0011341 277.2523  82.7483 16.31937210228832

JSON: /api/v1/satellites/53452 · /tle

For live sub-satellite position, see the globe view (requires WebGL).

§ Visibility from observer

Set your observer location to see the next 7 days of passes ≥ 10°. The values pass through the URL so the page stays shareable.

No JS? Fill the form by hand. The geolocation button needs JavaScript.

§ Radio — SatNOGS DB

ModeDescriptionDownlinkUplink
FM Jillin Mysterious Pip 1.616 GHz

1 transmitter · refreshed weekly from db.satnogs.org